Regional Weather Roundup
Issued by NWS Grand Forks, ND

Home | Current Version | Previous Version | Text Only | Print | Product List | Glossary Off
Versions: 1 2 3 4 5 6 7 8 9 10 11 12 13 14 15 16 17 18 19 20 21 22 23 24 25 26 27 28 29 30 31 32 33 34 35 36 37 38 39 40 41 42 43 44 45 46 47 48 49 50

484
ASUS43 KFGF 132131
RWRFGF
PRAIRIE TO PINES  WEATHER ROUNDUP
NATIONAL WEATHER SERVICE EASTERN NORTH DAKOTA/GRAND FORKS ND
300 PM CST WED DEC 13 2017

 **SATELLITE DATA USED TO AUGMENT SKY COVER AT AUTOMATED STATIONS**
 *****  WEATHER ACROSS EASTERN NORTH DAKOTA  *****

CITY           SKY/WX    TMP DP  RH WIND       PRES   REMARKS
GRAND FORKS    FLURRIES  23  19  85 N22       29.87R WCI   8
GRAND FRKS AFB DRIZZLE   23  18  80 N17G28    29.89R WCI   9
GRAND FRKS NWS   N/A     27 N/A N/A N15         N/A  WCI  15
DEVILS LAKE    CLOUDY    30  25  80 N24       29.87R WCI  16
FARGO          CLOUDY    25  22  88 N14G25    29.85R WCI  13
WAHPETON ARPT  CLOUDY    28  23  80 N14       29.84R WCI  17
$$

 ***** WEATHER ACROSS CENTRAL AND WESTERN NORTH DAKOTA  *****

CITY           SKY/WX    TMP DP  RH WIND       PRES   REMARKS
BISMARCK       CLOUDY    37  26  64 NW24G32   29.95R
MINOT          CLOUDY    36  26  67 NW18      29.93R
JAMESTOWN      CLOUDY    32  29  88 NW16      29.86R WCI  21
MINOT AFB      CLOUDY    35  26  71 NW18G24   29.92R WCI  24
GARRISON         N/A     34  26  72 NW22      29.94R WCI  22
WILLISTON      FAIR      41  24  51 NW18      30.01F
DICKINSON      FAIR      38  23  55 NW18G25   29.97R
HETTINGER      FAIR      41  20  43 NW23G35   30.00S
$$

 *****  OTHER AIRPORT OBSERVATIONS IN OUR AREA  *****

CITY           SKY/WX    TMP DP  RH WIND       PRES   REMARKS
WALHALLA       FAIR      21  21 100 N16G24    29.92R WCI   7
GRAFTON AIRPOR CLOUDY    21  18  86 N22G30    29.91R WCI   5
VALLEY CITY AR FLURRIES  32  32 100 N16G25    29.86R WCI  21
CANDO          CLOUDY    30  28  93 N16G29    29.90R WCI  19
CAVALIER APRT  CLOUDY    21  16  79 N17G28    29.90R WCI   7
GWINNER          N/A     32  28  86 NW18      29.84R WCI  20
SHEYENNE NWR     N/A     34  27  75 N14       29.95  WCI  25
ROLLA          CLOUDY    28  27  93 N17       29.88R WCI  16
 ***** THE ABOVE OBSERVATIONS ARE NON NWS ARE NOT QUALITY
       CONTROLLED AND MAY MIS-REPORT RAIN FOR SNOW...
$$

  *****  WEATHER ACROSS NORTHERN MINNESOTA  *****

CITY           SKY/WX    TMP DP  RH WIND       PRES   REMARKS
FLAG ISLAND    FAIR      14   9  79 N8        29.83R WCI   3
WARROAD        FAIR      16  10  79 N3        29.84R
ROSEAU         MOCLDY    16  10  79 N7        29.85R WCI   6
HALLOCK        FLURRIES  19  16  86 N16       29.88R WCI   5
THF RVR FALLS  FLURRIES  18  14  84 N15       29.84R WCI   4
BAUDETTE       FAIR      16   9  74 N8        29.80R WCI   5
WASKISH        CLOUDY    18  12  79 N6        29.80R WCI   9
CROOKSTON      CLOUDY    21  18  86 N21       29.88R WCI   6
STEPHEN NDAWN    N/A     19  16  86 N16         N/A  WCI   5
GREENBUSH NDAW   N/A     18  12  79 NW13        N/A  WCI   4
$$
  *****  WEATHER ACROSS CENTRAL AND WEST MINNESOTA  *****

CITY           SKY/WX    TMP DP  RH WIND       PRES   REMARKS
FOSSTON        LGT SNOW  18  14  86 N13       29.82R WCI   4
BEMIDJI        FAIR      15  11  83 N9        29.79R WCI   3
PARK RAPIDS    LGT SNOW  18  13  80 N12       29.75R WCI   5
ELBOW LAKE     CLOUDY    24  22  90 NW17G29   29.81R WCI  11
WADENA         LGT SNOW  19  16  86 N10       29.76R WCI   8
DETROIT LAKES  FLURRIES  23  19  86 N14G21    29.80R WCI  11
MOORHEAD       CLOUDY    23  19  86 N18       29.86R WCI   9
FERGUS FALLS   MIX PCPN  23  21  93 N18G30    29.84R WCI   9
MORRIS MN      CLOUDY    27  23  86 N21       29.79R WCI  13
STAPLES        LGT SNOW  18  16  93 N12       29.76R WCI   5
$$
  *****  WEATHER ELSEWHERE ACROSS MINNESOTA  *****

CITY           SKY/WX    TMP DP  RH WIND       PRES   REMARKS
DULUTH         LGT SNOW  22  18  85 NE7       29.68R FOG     WCI  13
INTRNTL FALLS  FAIR      18  11  74 NE7       29.77R WCI   9
ELY            FLURRIES  18  12  79 N5        29.74R WCI  11
CLOQUET        FLURRIES  25  18  74 N7        29.69R WCI  17
WHEATON        CLOUDY    30  25  80 NW16      29.84R WCI  19
BRAINERD       LGT SNOW  20  13  74 N13       29.75R WCI   7
HIBBING        LGT SNOW  19  14  81 N10       29.71R WCI   7
ALEXANDRIA     CLOUDY    24  19  81 N21G32    29.74R WCI   9
SAINT CLOUD    CLOUDY    22  18  85 N15G22    29.71R WCI   9
MINNEAPOLIS    CLOUDY    24  18  77 NW20G28   29.68R WCI  10
$$

  *****  WEATHER ACROSS SOUTH DAKOTA  *****

CITY           SKY/WX    TMP DP  RH WIND       PRES   REMARKS
SIOUX FALLS    CLOUDY    38  29  70 NW18G32   29.81R
BROOKINGS      CLOUDY    32  28  86 NW21G30   29.80R WCI  20
WATERTOWN      CLOUDY    31  29  92 NW16      29.80R WCI  20
HURON          CLOUDY    38  28  67 NW23G32   29.87R
SISSETON         N/A     33  29  85 NW20G25   29.82R WCI  21
ABERDEEN       CLOUDY    36  27  69 NW24G30   29.88R
MITCHELL       CLOUDY    39  29  67 N20G29    29.89R
PIERRE         FAIR      46  26  45 N22G31    29.91R
MOBRIDGE       CLOUDY    38  27  64 NW21G29   29.91R
RAPID CITY     FAIR      45  24  43 N26G36    30.01R
$$

  *****  SOME WEATHER IN NEARBY STATES *****

CITY           SKY/WX    TMP DP  RH WIND       PRES   REMARKS
GLASGOW MT     PTSUNNY   39  26  59 NW12      30.10F
GREAT FALLS MT FAIR      38  29  70 SW13      30.24F
CHEYENNE WY    FAIR      45  11  25 N14G20    30.02F
SCOTTSBLUFF NE FAIR      52  14  22 NW22G31   30.02F
OMAHA NE       FAIR      49  29  46 N22G35    29.79R
DES MOINES IA  CLOUDY    39  30  70 NW30G39   29.70R
DAVENPORT IA   CLOUDY    37  27  67 NW31G44   29.50R
CHICAGO IL     FLURRIES  35  29  78 NW20      29.30R WCI  24
EAU CLAIRE WI  CLOUDY    21  14  74 N12       29.59R WCI   9
LA CROSSE WI   CLOUDY    26  19  74 NW17      29.55R WCI  13
$$

  *****  SOME NATIONAL WEATHER *****

CITY           SKY/WX    TMP DP  RH WIND       PRES   REMARKS
LA GUARDIA NY  FAIR      32   6  33 NW28G39   29.59R WCI  18
RALEIGH NC     FAIR      43  11  27 SW13      29.85F
ATLANTA GA     FAIR      49  10  20 SW14G21   29.92F
NEW ORLEANS LA PTSUNNY   62  32  32 SW9       30.06F
OKLAHOMA CITY  FAIR      65  22  19 N12       29.90F
ALBUQUERQUE NM FAIR      54   5  14 CALM      30.08F
SALT LAKE CITY PTSUNNY   28  24  85 N6        30.27S FOG     WCI  22
LOS ANGELES CA FAIR      73  38  27 W12       29.95F
BOISE ID       CLOUDY    25  21  85 NW8       30.39S FOG     WCI  16
SEATTLE WA     PTSUNNY   47  38  71 N18       30.38F
$$

*** WEATHER ACROSS MANITOBA...SASKATCHEWAN AND ONTARIO ***
                ***ONTARIO***

CITY           SKY/WX    TMP DP  RH WIND       PRES   REMARKS
GERALDTON      FLURRIES  -4  -9  77 NE6       29.80R WCI -16
THUNDER BAY    PTCLDY    12   3  67 N10       29.79R WCI  -1
SIOUX LOOKOUT  PTCLDY     9   3  78 VRB2      29.81R
TORONTO        MOCLDY    18   3  53 NW8       29.63F WCI   7
BIG TROUT LK   CLEAR    -13 -18  77 S2        29.92R
PICKLE LAKE    PTCLDY    -2  -6  84 NW3       29.84R
DRYDEN         CLEAR     10   7  85 NE6       29.79R WCI   1
KENORA         PTCLDY    12   7  79 N6        29.81  WCI   3
$$
                *** MANITOBA***

CITY           SKY/WX    TMP DP  RH WIND       PRES   REMARKS
BRANDON        PTSUNNY   28  21  74 N12G18    29.91R WCI  18
DAUPHIN        CLOUDY    18  16  93 E5        29.95S WCI  11
ISLAND LAKE    MOCLDY    -4  -9  77 W3        29.93R
PILOT MOUND      N/A     21  18  86 N15G21      N/A  WCI   8
THE PAS        FLURRIES  18  12  79 NW9       29.94F WCI   6
THOMPSON       MOCLDY     1  -2  85 CALM      29.92F
WINNIPEG       FLURRIES  18  12  79 N13       29.92R WCI   4
LYNN LAKE      FLURRIES   7   5  92 NW7       29.92R WCI  -5
CHURCHILL      CLOUDY    -9 -15  77 W6        29.98R WCI -23
GILLAM         CLOUDY    -8 -13  77 VRB2      29.95S
$$
                ***SASKATCHEWAN***

CITY           SKY/WX    TMP DP  RH WIND       PRES   REMARKS
ESTEVAN        CLOUDY    34  25  69 NW17G29   29.98S WCI  23
KINDERSLEY     MOSUNNY   36  28  75 W14       30.07F
LLOYDMINSTER   MOSUNNY   36  28  75 NW16      30.04R
PRINCE ALBERT  MOCLDY    34  27  75 NW6       29.95S
REGINA         MOSUNNY   36  30  80 W13       29.98S
YORKTON        CLOUDY    30  27  86 VRB2      29.92S
N. BATTLEFORD  CLOUDY    36  28  75 NW16G23   30.02R
LA RONGE       LGT SNOW  25  23  93 S2        29.92S
SASKATOON      PTSUNNY   36  28  75 W13       29.99F
SWIFT CURRENT  SUNNY     37  28  70 W16G24    30.04F
$$
NOTE: THESE ARE AUTOMATED STATIONS WITH LIMITED QUALITY CONTROL
      "FAIR" INDICATES FEW OR NO CLOUDS BELOW 12,000 FEET WITH NO
      SIGNIFICANT WEATHER AND/OR OBSTRUCTIONS TO VISIBILITY.
      SKY/WX - SKY CONDITION AND SIGNIFICANT WEATHER.
      TMP - AIR TEMPERATURE.    DP   - DEWPOINT TEMPERATURE.
      RH  - RELATIVE HUMIDITY.  PRES - PRESSURE.
      HX  - HEAT INDEX.         WCI  - WIND CHILL INDEX.
$




USA.gov is the U.S. government's official web portal to all federal, state and local government web resources and services.